Year,Month,Day,Hour,Minute,Value (Times are PST for temperature in C)
2018,03,28,00,00,7.70
2018,03,28,00,01,7.70
2018,03,28,00,02,7.70
2018,03,28,00,03,7.70
2018,03,28,00,04,7.70
2018,03,28,00,05,7.70
2018,03,28,00,06,7.70
2018,03,28,00,07,7.70
2018,03,28,00,08,7.70
2018,03,28,00,09,7.70
2018,03,28,00,10,7.60
2018,03,28,00,11,7.60
2018,03,28,00,12,7.60
2018,03,28,00,13,7.60
2018,03,28,00,14,7.60
2018,03,28,00,15,7.60
2018,03,28,00,16,7.60
2018,03,28,00,17,7.60
2018,03,28,00,18,7.60
2018,03,28,00,19,7.60
2018,03,28,00,20,7.50
2018,03,28,00,21,7.50
2018,03,28,00,22,7.50
2018,03,28,00,23,7.50
2018,03,28,00,24,7.50
2018,03,28,00,25,7.50
2018,03,28,00,26,7.50
2018,03,28,00,27,7.50
2018,03,28,00,28,7.50
2018,03,28,00,29,7.50
2018,03,28,00,30,7.50
2018,03,28,00,31,7.50
2018,03,28,00,32,7.50
2018,03,28,00,33,7.50
2018,03,28,00,34,7.50
2018,03,28,00,35,7.40
2018,03,28,00,36,7.50
2018,03,28,00,37,7.40
2018,03,28,00,38,7.40
2018,03,28,00,39,7.40
2018,03,28,00,40,7.40
2018,03,28,00,41,7.40
2018,03,28,00,42,7.40
2018,03,28,00,43,7.40
2018,03,28,00,44,7.40
2018,03,28,00,45,7.40
2018,03,28,00,46,7.40
2018,03,28,00,47,7.40
2018,03,28,00,48,7.40
2018,03,28,00,49,7.40
2018,03,28,00,50,7.30
2018,03,28,00,51,7.30
2018,03,28,00,52,7.30
2018,03,28,00,53,7.30
2018,03,28,00,54,7.30
2018,03,28,00,55,7.30
2018,03,28,00,56,7.30
2018,03,28,00,57,7.30
2018,03,28,00,58,7.30
2018,03,28,00,59,7.30
2018,03,28,01,00,7.30
2018,03,28,01,01,7.20
2018,03,28,01,02,7.30
2018,03,28,01,03,7.20
2018,03,28,01,04,7.20
2018,03,28,01,05,7.20
2018,03,28,01,06,7.20
2018,03,28,01,07,7.20
2018,03,28,01,08,7.20
2018,03,28,01,09,7.20
2018,03,28,01,10,7.20
2018,03,28,01,11,7.20
2018,03,28,01,12,7.20
2018,03,28,01,13,7.20
2018,03,28,01,14,7.10
2018,03,28,01,15,7.10
2018,03,28,01,16,7.10
2018,03,28,01,17,7.10
2018,03,28,01,18,7.10
2018,03,28,01,19,7.20
2018,03,28,01,20,7.20
2018,03,28,01,21,7.20
2018,03,28,01,22,7.10
2018,03,28,01,23,7.10
2018,03,28,01,24,7.10
2018,03,28,01,25,7.10
2018,03,28,01,26,7.10
2018,03,28,01,27,7.10
2018,03,28,01,28,7.10
2018,03,28,01,29,7.10
2018,03,28,01,30,7.10
2018,03,28,01,31,7.10
2018,03,28,01,32,7.10
2018,03,28,01,33,7.00
2018,03,28,01,34,7.00
2018,03,28,01,35,7.00
2018,03,28,01,36,7.00
2018,03,28,01,37,7.00
2018,03,28,01,38,7.00
2018,03,28,01,39,7.00
2018,03,28,01,40,7.00
2018,03,28,01,41,7.00
2018,03,28,01,42,7.00
2018,03,28,01,43,6.90
2018,03,28,01,44,6.90
2018,03,28,01,45,6.90
2018,03,28,01,46,6.90
2018,03,28,01,47,6.90
2018,03,28,01,48,6.90
2018,03,28,01,49,6.90
2018,03,28,01,50,6.90
2018,03,28,01,51,6.90
2018,03,28,01,52,6.90
2018,03,28,01,53,6.90
2018,03,28,01,54,6.90
2018,03,28,01,55,6.90
2018,03,28,01,56,6.90
2018,03,28,01,57,6.90
2018,03,28,01,58,6.90
2018,03,28,01,59,6.90
2018,03,28,02,00,6.90
2018,03,28,02,01,6.90
2018,03,28,02,02,6.90
2018,03,28,02,03,6.90
2018,03,28,02,04,6.90
2018,03,28,02,05,6.90
2018,03,28,02,06,6.90
2018,03,28,02,07,6.90
2018,03,28,02,08,6.90
2018,03,28,02,09,6.80
2018,03,28,02,10,6.90
2018,03,28,02,11,6.90
2018,03,28,02,12,6.90
2018,03,28,02,13,6.90
2018,03,28,02,14,6.90
2018,03,28,02,15,6.90
2018,03,28,02,16,6.80
2018,03,28,02,17,6.80
2018,03,28,02,18,6.80
2018,03,28,02,19,6.80
2018,03,28,02,20,6.80
2018,03,28,02,21,6.80
2018,03,28,02,22,6.80
2018,03,28,02,23,6.80
2018,03,28,02,24,6.80
2018,03,28,02,25,6.80
2018,03,28,02,26,6.80
2018,03,28,02,27,6.80
2018,03,28,02,28,6.80
2018,03,28,02,29,6.70
2018,03,28,02,30,6.70
2018,03,28,02,31,6.70
2018,03,28,02,32,6.80
2018,03,28,02,33,6.80
2018,03,28,02,34,6.80
2018,03,28,02,35,6.80
2018,03,28,02,36,6.80
2018,03,28,02,37,6.80
2018,03,28,02,38,6.80
2018,03,28,02,39,6.80
2018,03,28,02,40,6.80
2018,03,28,02,41,6.80
2018,03,28,02,42,6.80
2018,03,28,02,43,6.80
2018,03,28,02,44,6.80
2018,03,28,02,45,6.80
2018,03,28,02,46,6.80
2018,03,28,02,47,6.80
2018,03,28,02,48,6.80
2018,03,28,02,49,6.80
2018,03,28,02,50,6.70
2018,03,28,02,51,6.70
2018,03,28,02,52,6.70
2018,03,28,02,53,6.70
2018,03,28,02,54,6.70
2018,03,28,02,55,6.70
2018,03,28,02,56,6.70
2018,03,28,02,57,6.70
2018,03,28,02,58,6.70
2018,03,28,02,59,6.70
2018,03,28,03,00,6.70
2018,03,28,03,01,6.70
2018,03,28,03,02,6.70
2018,03,28,03,03,6.70
2018,03,28,03,04,6.70
2018,03,28,03,05,6.70
2018,03,28,03,06,6.70
2018,03,28,03,07,6.70
2018,03,28,03,08,6.70
2018,03,28,03,09,6.70
2018,03,28,03,10,6.70
2018,03,28,03,11,6.70
2018,03,28,03,12,6.70
2018,03,28,03,13,6.70
2018,03,28,03,14,6.60
2018,03,28,03,15,6.60
2018,03,28,03,16,6.60
2018,03,28,03,17,6.60
2018,03,28,03,18,6.60
2018,03,28,03,19,6.60
2018,03,28,03,20,6.60
2018,03,28,03,21,6.60
2018,03,28,03,22,6.50
2018,03,28,03,23,6.50
2018,03,28,03,24,6.50
2018,03,28,03,25,6.50
2018,03,28,03,26,6.50
2018,03,28,03,27,6.50
2018,03,28,03,28,6.50
2018,03,28,03,29,6.50
2018,03,28,03,30,6.50
2018,03,28,03,31,6.50
2018,03,28,03,32,6.40
2018,03,28,03,33,6.40
2018,03,28,03,34,6.40
2018,03,28,03,35,6.40
2018,03,28,03,36,6.40
2018,03,28,03,37,6.40
2018,03,28,03,38,6.30
2018,03,28,03,39,6.30
2018,03,28,03,40,6.30
2018,03,28,03,41,6.30
2018,03,28,03,42,6.30
2018,03,28,03,43,6.30
2018,03,28,03,44,6.30
2018,03,28,03,45,6.30
2018,03,28,03,46,6.30
2018,03,28,03,47,6.30
2018,03,28,03,48,6.30
2018,03,28,03,49,6.30
2018,03,28,03,50,6.30
2018,03,28,03,51,6.30
2018,03,28,03,52,6.30
2018,03,28,03,53,6.30
2018,03,28,03,54,6.20
2018,03,28,03,55,6.20
2018,03,28,03,56,6.20
2018,03,28,03,57,6.20
2018,03,28,03,58,6.20
2018,03,28,03,59,6.20
2018,03,28,04,00,6.20
2018,03,28,04,01,6.20
2018,03,28,04,02,6.20
2018,03,28,04,03,6.20
2018,03,28,04,04,6.20
2018,03,28,04,05,6.20
2018,03,28,04,06,6.20
2018,03,28,04,07,6.20
2018,03,28,04,08,6.20
2018,03,28,04,09,6.20
2018,03,28,04,10,6.20
2018,03,28,04,11,6.20
2018,03,28,04,12,6.20
2018,03,28,04,13,6.20
2018,03,28,04,14,6.20
2018,03,28,04,15,6.20
2018,03,28,04,16,6.20
2018,03,28,04,17,6.20
2018,03,28,04,18,6.20
2018,03,28,04,19,6.20
2018,03,28,04,20,6.20
2018,03,28,04,21,6.20
2018,03,28,04,22,6.20
2018,03,28,04,23,6.20
2018,03,28,04,24,6.20
2018,03,28,04,25,6.20
2018,03,28,04,26,6.20
2018,03,28,04,27,6.20
2018,03,28,04,28,6.20
2018,03,28,04,29,6.20
2018,03,28,04,30,6.20
2018,03,28,04,31,6.20
2018,03,28,04,32,6.20
2018,03,28,04,33,6.20
2018,03,28,04,34,6.20
2018,03,28,04,35,6.10
2018,03,28,04,36,6.10
2018,03,28,04,37,6.10
2018,03,28,04,38,6.10
2018,03,28,04,39,6.10
2018,03,28,04,40,6.10
2018,03,28,04,41,6.10
2018,03,28,04,42,6.10
2018,03,28,04,43,6.10
2018,03,28,04,44,6.10
2018,03,28,04,45,6.10
2018,03,28,04,46,6.10
2018,03,28,04,47,6.10
2018,03,28,04,48,6.10
2018,03,28,04,49,6.00
2018,03,28,04,50,6.00
2018,03,28,04,51,6.00
2018,03,28,04,52,6.00
2018,03,28,04,53,6.00
2018,03,28,04,54,6.00
2018,03,28,04,55,6.00
2018,03,28,04,56,6.00
2018,03,28,04,57,6.00
2018,03,28,04,58,6.00
2018,03,28,04,59,6.00
2018,03,28,05,00,5.90
2018,03,28,05,01,5.90
2018,03,28,05,02,5.90
2018,03,28,05,03,5.90
2018,03,28,05,04,5.90
2018,03,28,05,05,5.90
2018,03,28,05,06,5.90
2018,03,28,05,07,5.90
2018,03,28,05,08,5.90
2018,03,28,05,09,5.90
2018,03,28,05,10,5.90
2018,03,28,05,11,5.90
2018,03,28,05,12,5.90
2018,03,28,05,13,5.90
2018,03,28,05,14,5.90
2018,03,28,05,15,5.80
2018,03,28,05,16,5.80
2018,03,28,05,17,5.80
2018,03,28,05,18,5.80
2018,03,28,05,19,5.80
2018,03,28,05,20,5.80
2018,03,28,05,21,5.80
2018,03,28,05,22,5.80
2018,03,28,05,23,5.80
2018,03,28,05,24,5.80
2018,03,28,05,25,5.80
2018,03,28,05,26,5.80
2018,03,28,05,27,5.80
2018,03,28,05,28,5.80
2018,03,28,05,29,5.80
2018,03,28,05,30,5.80
2018,03,28,05,31,5.80
2018,03,28,05,32,5.80
2018,03,28,05,33,5.80
2018,03,28,05,34,5.80
2018,03,28,05,35,5.70
2018,03,28,05,36,5.70
2018,03,28,05,37,5.70
2018,03,28,05,38,5.70
2018,03,28,05,39,5.70
2018,03,28,05,40,5.70
2018,03,28,05,41,5.70
2018,03,28,05,42,5.70
2018,03,28,05,43,5.70
2018,03,28,05,44,5.70
2018,03,28,05,45,5.70
2018,03,28,05,46,5.70
2018,03,28,05,47,5.70
2018,03,28,05,48,5.70
2018,03,28,05,49,5.70
2018,03,28,05,50,5.70
2018,03,28,05,51,5.70
2018,03,28,05,52,5.70
2018,03,28,05,53,5.70
2018,03,28,05,54,5.70
2018,03,28,05,55,5.70
2018,03,28,05,56,5.70
2018,03,28,05,57,5.70
2018,03,28,05,58,5.70
2018,03,28,05,59,5.70
2018,03,28,06,00,5.70
2018,03,28,06,01,5.70
2018,03,28,06,02,5.70
2018,03,28,06,03,5.70
2018,03,28,06,04,5.70
2018,03,28,06,05,5.70
2018,03,28,06,06,5.70
2018,03,28,06,07,5.70
2018,03,28,06,08,5.60
2018,03,28,06,09,5.60
2018,03,28,06,10,5.60
2018,03,28,06,11,5.60
2018,03,28,06,12,5.60
2018,03,28,06,13,5.60
2018,03,28,06,14,5.50
2018,03,28,06,15,5.50
2018,03,28,06,16,5.50
2018,03,28,06,17,5.50
2018,03,28,06,18,5.50
2018,03,28,06,19,5.50
2018,03,28,06,20,5.50
2018,03,28,06,21,5.50
2018,03,28,06,22,5.50
2018,03,28,06,23,5.50
2018,03,28,06,24,5.50
2018,03,28,06,25,5.50
2018,03,28,06,26,5.50
2018,03,28,06,27,5.50
2018,03,28,06,28,5.50
2018,03,28,06,29,5.40
2018,03,28,06,30,5.50
2018,03,28,06,31,5.40
2018,03,28,06,32,5.50
2018,03,28,06,33,5.40
2018,03,28,06,34,5.40
2018,03,28,06,35,5.40
2018,03,28,06,36,5.40
2018,03,28,06,37,5.40
2018,03,28,06,38,5.40
2018,03,28,06,39,5.40
2018,03,28,06,40,5.40
2018,03,28,06,41,5.40
2018,03,28,06,42,5.40
2018,03,28,06,43,5.40
2018,03,28,06,44,5.40
2018,03,28,06,45,5.40
2018,03,28,06,46,5.30
2018,03,28,06,47,5.30
2018,03,28,06,48,5.30
2018,03,28,06,49,5.30
2018,03,28,06,50,5.30
2018,03,28,06,51,5.30
2018,03,28,06,52,5.20
2018,03,28,06,53,5.20
2018,03,28,06,54,5.20
2018,03,28,06,55,5.20
2018,03,28,06,56,5.10
2018,03,28,06,57,5.10
2018,03,28,06,58,5.10
2018,03,28,06,59,5.10
2018,03,28,07,00,5.10
2018,03,28,07,01,5.00
2018,03,28,07,02,5.00
2018,03,28,07,03,5.00
2018,03,28,07,04,4.90
2018,03,28,07,05,4.90
2018,03,28,07,06,4.90
2018,03,28,07,07,4.90
2018,03,28,07,08,4.90
2018,03,28,07,09,4.90
2018,03,28,07,10,4.90
2018,03,28,07,11,4.90
2018,03,28,07,12,4.90
2018,03,28,07,13,4.90
2018,03,28,07,14,4.90
2018,03,28,07,15,4.80
2018,03,28,07,16,4.80
2018,03,28,07,17,4.80
2018,03,28,07,18,4.80
2018,03,28,07,19,4.80
2018,03,28,07,20,4.70
2018,03,28,07,21,4.70
2018,03,28,07,22,4.70
2018,03,28,07,23,4.70
2018,03,28,07,24,4.60
2018,03,28,07,25,4.60
2018,03,28,07,26,4.60
2018,03,28,07,27,4.60
2018,03,28,07,28,4.60
2018,03,28,07,29,4.60
2018,03,28,07,30,4.60
2018,03,28,07,31,4.60
2018,03,28,07,32,4.60
2018,03,28,07,33,4.60
2018,03,28,07,34,4.60
2018,03,28,07,35,4.60
2018,03,28,07,36,4.60
2018,03,28,07,37,4.70
2018,03,28,07,38,4.70
2018,03,28,07,39,4.70
2018,03,28,07,40,4.70
2018,03,28,07,41,4.70
2018,03,28,07,42,4.70
2018,03,28,07,43,4.70
2018,03,28,07,44,4.70
2018,03,28,07,45,4.70
2018,03,28,07,46,4.70
2018,03,28,07,47,4.70
2018,03,28,07,48,4.60
2018,03,28,07,49,4.60
2018,03,28,07,50,4.60
2018,03,28,07,51,4.60
2018,03,28,07,52,4.70
2018,03,28,07,53,4.70
2018,03,28,07,54,4.70
2018,03,28,07,55,4.70
2018,03,28,07,56,4.70
2018,03,28,07,57,4.70
2018,03,28,07,58,4.70
2018,03,28,07,59,4.70
2018,03,28,08,00,4.70
2018,03,28,08,01,4.70
2018,03,28,08,02,4.70
2018,03,28,08,03,4.70
2018,03,28,08,04,4.80
2018,03,28,08,05,4.80
2018,03,28,08,06,4.80
2018,03,28,08,07,4.80
2018,03,28,08,08,4.90
2018,03,28,08,09,4.90
2018,03,28,08,10,4.90
2018,03,28,08,11,4.90
2018,03,28,08,12,4.90
2018,03,28,08,13,4.90
2018,03,28,08,14,4.90
2018,03,28,08,15,4.90
2018,03,28,08,16,4.90
2018,03,28,08,17,4.90
2018,03,28,08,18,4.90
2018,03,28,08,19,4.90
2018,03,28,08,20,4.90
2018,03,28,08,21,4.90
2018,03,28,08,22,4.80
2018,03,28,08,23,4.80
2018,03,28,08,24,4.80
2018,03,28,08,25,4.80
2018,03,28,08,26,4.80
2018,03,28,08,27,4.90
2018,03,28,08,28,4.90
2018,03,28,08,29,4.90
2018,03,28,08,30,4.90
2018,03,28,08,31,4.90
2018,03,28,08,32,4.90
2018,03,28,08,33,5.00
2018,03,28,08,34,5.00
2018,03,28,08,35,4.90
2018,03,28,08,36,5.00
2018,03,28,08,37,5.00
2018,03,28,08,38,5.00
2018,03,28,08,39,5.10
2018,03,28,08,40,5.10
2018,03,28,08,41,5.10
2018,03,28,08,42,5.10
2018,03,28,08,43,5.10
2018,03,28,08,44,5.10
2018,03,28,08,45,5.10
2018,03,28,08,46,5.10
2018,03,28,08,47,5.10
2018,03,28,08,48,5.10
2018,03,28,08,49,5.10
2018,03,28,08,50,5.20
2018,03,28,08,51,5.20
2018,03,28,08,52,5.20
2018,03,28,08,53,5.20
2018,03,28,08,54,5.20
2018,03,28,08,55,5.20
2018,03,28,08,56,5.20
2018,03,28,08,57,5.20
2018,03,28,08,58,5.30
2018,03,28,08,59,5.30
2018,03,28,09,00,5.30
2018,03,28,09,01,5.30
2018,03,28,09,02,5.30
2018,03,28,09,03,5.40
2018,03,28,09,04,5.40
2018,03,28,09,05,5.50
2018,03,28,09,06,5.50
2018,03,28,09,07,5.50
2018,03,28,09,08,5.50
2018,03,28,09,09,5.60
2018,03,28,09,10,5.60
2018,03,28,09,11,5.60
2018,03,28,09,12,5.60
2018,03,28,09,13,5.60
2018,03,28,09,14,5.60
2018,03,28,09,15,5.60
2018,03,28,09,16,5.60
2018,03,28,09,17,5.70
2018,03,28,09,18,5.70
2018,03,28,09,19,5.70
2018,03,28,09,20,5.70
2018,03,28,09,21,5.80
2018,03,28,09,22,5.80
2018,03,28,09,23,5.80
2018,03,28,09,24,5.80
2018,03,28,09,25,5.80
2018,03,28,09,26,5.80
2018,03,28,09,27,5.80
2018,03,28,09,28,5.90
2018,03,28,09,29,5.90
2018,03,28,09,30,5.90
2018,03,28,09,31,5.90
2018,03,28,09,32,5.90
2018,03,28,09,33,6.00
2018,03,28,09,34,6.00
2018,03,28,09,35,6.00
2018,03,28,09,36,6.00
2018,03,28,09,37,6.00
2018,03,28,09,38,6.00
2018,03,28,09,39,6.00
2018,03,28,09,40,6.00
2018,03,28,09,41,6.10
2018,03,28,09,42,6.10
2018,03,28,09,43,6.10
2018,03,28,09,44,6.10
2018,03,28,09,45,6.10
2018,03,28,09,46,6.20
2018,03,28,09,47,6.10
2018,03,28,09,48,6.20
2018,03,28,09,49,6.20
2018,03,28,09,50,6.20
2018,03,28,09,51,6.30
2018,03,28,09,52,6.30
2018,03,28,09,53,6.30
2018,03,28,09,54,6.40
2018,03,28,09,55,6.40
2018,03,28,09,56,6.40
2018,03,28,09,57,6.40
2018,03,28,09,58,6.40
2018,03,28,09,59,6.40
2018,03,28,10,00,6.50
2018,03,28,10,01,6.50
2018,03,28,10,02,6.50
2018,03,28,10,03,6.50
2018,03,28,10,04,6.50
2018,03,28,10,05,6.50
2018,03,28,10,06,6.50
2018,03,28,10,07,6.50
2018,03,28,10,08,6.60
2018,03,28,10,09,6.60
2018,03,28,10,10,6.70
2018,03,28,10,11,6.70
2018,03,28,10,12,6.80
2018,03,28,10,13,6.80
2018,03,28,10,14,6.80
2018,03,28,10,15,6.80
2018,03,28,10,16,6.90
2018,03,28,10,17,6.90
2018,03,28,10,18,6.90
2018,03,28,10,19,6.80
2018,03,28,10,20,6.80
2018,03,28,10,21,6.80
2018,03,28,10,22,6.80
2018,03,28,10,23,6.80
2018,03,28,10,24,6.80
2018,03,28,10,25,6.80
2018,03,28,10,26,6.80
2018,03,28,10,27,6.80
2018,03,28,10,28,6.80
2018,03,28,10,29,6.80
2018,03,28,10,30,6.80
2018,03,28,10,31,6.80
2018,03,28,10,32,6.90
2018,03,28,10,33,6.90
2018,03,28,10,34,7.00
2018,03,28,10,35,7.00
2018,03,28,10,36,7.10
2018,03,28,10,37,7.10
2018,03,28,10,38,7.10
2018,03,28,10,39,7.10
2018,03,28,10,40,7.20
2018,03,28,10,41,7.20
2018,03,28,10,42,7.20
2018,03,28,10,43,7.20
2018,03,28,10,44,7.20
2018,03,28,10,45,7.20
2018,03,28,10,46,7.30
2018,03,28,10,47,7.30
2018,03,28,10,48,7.30
2018,03,28,10,49,7.40
2018,03,28,10,50,7.40
2018,03,28,10,51,7.40
2018,03,28,10,52,7.50
2018,03,28,10,53,7.50
2018,03,28,10,54,7.50
2018,03,28,10,55,7.50
2018,03,28,10,56,7.50
2018,03,28,10,57,7.50
2018,03,28,10,58,7.50
2018,03,28,10,59,7.50
2018,03,28,11,00,7.60
2018,03,28,11,01,7.60
2018,03,28,11,02,7.60
2018,03,28,11,03,7.60
2018,03,28,11,04,7.60
2018,03,28,11,05,7.60
2018,03,28,11,06,7.60
2018,03,28,11,07,7.70
2018,03,28,11,08,7.70
2018,03,28,11,09,7.80
2018,03,28,11,10,7.80
2018,03,28,11,11,7.80
2018,03,28,11,12,7.80
2018,03,28,11,13,7.80
2018,03,28,11,14,7.80
2018,03,28,11,15,7.80
2018,03,28,11,16,7.80
2018,03,28,11,17,7.80
2018,03,28,11,18,7.80
2018,03,28,11,19,7.80
2018,03,28,11,20,7.80
2018,03,28,11,21,7.90
2018,03,28,11,22,7.90
2018,03,28,11,23,7.90
2018,03,28,11,24,7.90
2018,03,28,11,25,7.90
2018,03,28,11,26,7.90
2018,03,28,11,27,7.90
2018,03,28,11,28,7.90
2018,03,28,11,29,8.00
2018,03,28,11,30,8.10
2018,03,28,11,31,8.10
2018,03,28,11,32,8.20
2018,03,28,11,33,8.20
2018,03,28,11,34,8.20
2018,03,28,11,35,8.20
2018,03,28,11,36,8.20
2018,03,28,11,37,8.20
2018,03,28,11,38,8.30
2018,03,28,11,39,8.30
2018,03,28,11,40,8.30
2018,03,28,11,41,8.30
2018,03,28,11,42,8.20
2018,03,28,11,43,8.20
2018,03,28,11,44,8.20
2018,03,28,11,45,8.20
2018,03,28,11,46,8.20
2018,03,28,11,47,8.20
2018,03,28,11,48,8.20
2018,03,28,11,49,8.20
2018,03,28,11,50,8.30
2018,03,28,11,51,8.30
2018,03,28,11,52,8.30
2018,03,28,11,53,8.30
2018,03,28,11,54,8.30
2018,03,28,11,55,8.40
2018,03,28,11,56,8.40
2018,03,28,11,57,8.50
2018,03,28,11,58,8.60
2018,03,28,11,59,8.60
2018,03,28,12,00,8.60
2018,03,28,12,01,8.70
2018,03,28,12,02,8.70
2018,03,28,12,03,8.70
2018,03,28,12,04,8.70
2018,03,28,12,05,8.70
2018,03,28,12,06,8.70
2018,03,28,12,07,8.70
2018,03,28,12,08,8.70
2018,03,28,12,09,8.70
2018,03,28,12,10,8.80
2018,03,28,12,11,8.80
2018,03,28,12,12,8.80
2018,03,28,12,13,8.80
2018,03,28,12,14,8.80
2018,03,28,12,15,8.80
2018,03,28,12,16,8.80
2018,03,28,12,17,8.90
2018,03,28,12,18,8.90
2018,03,28,12,19,9.00
2018,03,28,12,20,9.00
2018,03,28,12,21,9.10
2018,03,28,12,22,9.20
2018,03,28,12,23,9.20
2018,03,28,12,24,9.20
2018,03,28,12,25,9.30
2018,03,28,12,26,9.40
2018,03,28,12,27,9.40
2018,03,28,12,28,9.50
2018,03,28,12,29,9.50
2018,03,28,12,30,9.50
2018,03,28,12,31,9.50
2018,03,28,12,32,9.50
2018,03,28,12,33,9.50
2018,03,28,12,34,9.40
2018,03,28,12,35,9.40
2018,03,28,12,36,9.30
2018,03,28,12,37,9.30
2018,03,28,12,38,9.30
2018,03,28,12,39,9.20
2018,03,28,12,40,9.20
2018,03,28,12,41,9.10
2018,03,28,12,42,9.10
2018,03,28,12,43,9.10
2018,03,28,12,44,9.10
2018,03,28,12,45,9.10
2018,03,28,12,46,9.10
2018,03,28,12,47,9.10
2018,03,28,12,48,9.10
2018,03,28,12,49,9.20
2018,03,28,12,50,9.20
2018,03,28,12,51,9.20
2018,03,28,12,52,9.30
2018,03,28,12,53,9.30
2018,03,28,12,54,9.30
2018,03,28,12,55,9.30
2018,03,28,12,56,9.20
2018,03,28,12,57,9.10
2018,03,28,12,58,9.10
2018,03,28,12,59,9.10
2018,03,28,13,00,9.10
2018,03,28,13,01,9.10
2018,03,28,13,02,9.10
2018,03,28,13,03,9.10
2018,03,28,13,04,9.10
2018,03,28,13,05,9.10
2018,03,28,13,06,9.20
2018,03,28,13,07,9.20
2018,03,28,13,08,9.20
2018,03,28,13,09,9.20
2018,03,28,13,10,9.20
2018,03,28,13,11,9.20
2018,03,28,13,12,9.20
2018,03,28,13,13,9.20
2018,03,28,13,14,9.20
2018,03,28,13,15,9.20
2018,03,28,13,16,9.20
2018,03,28,13,17,9.20
2018,03,28,13,18,9.20
2018,03,28,13,19,9.20
2018,03,28,13,20,9.20
2018,03,28,13,21,9.20
2018,03,28,13,22,9.30
2018,03,28,13,23,9.30
2018,03,28,13,24,9.40
2018,03,28,13,25,9.40
2018,03,28,13,26,9.40
2018,03,28,13,27,9.40
2018,03,28,13,28,9.40
2018,03,28,13,29,9.40
2018,03,28,13,30,9.40
2018,03,28,13,31,9.40
2018,03,28,13,32,9.40
2018,03,28,13,33,9.50
2018,03,28,13,34,9.60
2018,03,28,13,35,9.60
2018,03,28,13,36,9.70
2018,03,28,13,37,9.70
2018,03,28,13,38,9.70
2018,03,28,13,39,9.80
2018,03,28,13,40,9.80
2018,03,28,13,41,9.80
2018,03,28,13,42,9.70
2018,03,28,13,43,9.70
2018,03,28,13,44,9.70
2018,03,28,13,45,9.70
2018,03,28,13,46,9.70
2018,03,28,13,47,9.70
2018,03,28,13,48,9.80
2018,03,28,13,49,9.80
2018,03,28,13,50,9.80
2018,03,28,13,51,9.90
2018,03,28,13,52,10.00
2018,03,28,13,53,10.00
2018,03,28,13,54,10.10
2018,03,28,13,55,10.10
2018,03,28,13,56,10.00
2018,03,28,13,57,10.10
2018,03,28,13,58,10.10
2018,03,28,13,59,10.20
2018,03,28,14,00,10.20
2018,03,28,14,01,10.20
2018,03,28,14,02,10.20
2018,03,28,14,03,10.20
2018,03,28,14,04,10.20
2018,03,28,14,05,10.20
2018,03,28,14,06,10.30
2018,03,28,14,07,10.30
2018,03,28,14,08,10.30
2018,03,28,14,09,10.30
2018,03,28,14,10,10.30
2018,03,28,14,11,10.30
2018,03,28,14,12,10.30
2018,03,28,14,13,10.30
2018,03,28,14,14,10.30
2018,03,28,14,15,10.30
2018,03,28,14,16,10.30
2018,03,28,14,17,10.30
2018,03,28,14,18,10.30
2018,03,28,14,19,10.30
2018,03,28,14,20,10.20
2018,03,28,14,21,10.20
2018,03,28,14,22,10.20
2018,03,28,14,23,10.20
2018,03,28,14,24,10.20
2018,03,28,14,25,10.20
2018,03,28,14,26,10.30
2018,03,28,14,27,10.30
2018,03,28,14,28,10.30
2018,03,28,14,29,10.30
2018,03,28,14,30,10.30
2018,03,28,14,31,10.30
2018,03,28,14,32,10.30
2018,03,28,14,33,10.30
2018,03,28,14,34,10.30
2018,03,28,14,35,10.20
2018,03,28,14,36,10.20
2018,03,28,14,37,10.20
2018,03,28,14,38,10.10
2018,03,28,14,39,10.10
2018,03,28,14,40,10.10
2018,03,28,14,41,10.10
2018,03,28,14,42,10.00
2018,03,28,14,43,10.00
2018,03,28,14,44,9.90
2018,03,28,14,45,9.90
2018,03,28,14,46,9.90
2018,03,28,14,47,9.90
2018,03,28,14,48,9.90
2018,03,28,14,49,9.80
2018,03,28,14,50,9.80
2018,03,28,14,51,9.70
2018,03,28,14,52,9.70
2018,03,28,14,53,9.60
2018,03,28,14,54,9.60
2018,03,28,14,55,9.60
2018,03,28,14,56,9.60
2018,03,28,14,57,9.60
2018,03,28,14,58,9.60
2018,03,28,14,59,9.60
2018,03,28,15,00,9.60
2018,03,28,15,01,9.60
2018,03,28,15,02,9.60
2018,03,28,15,03,9.60
2018,03,28,15,04,9.60
2018,03,28,15,05,9.60
2018,03,28,15,06,9.60
2018,03,28,15,07,9.60
2018,03,28,15,08,9.60
2018,03,28,15,09,9.60
2018,03,28,15,10,9.60
2018,03,28,15,11,9.60
2018,03,28,15,12,9.60
2018,03,28,15,13,9.70
2018,03,28,15,14,9.70
2018,03,28,15,15,9.70
2018,03,28,15,16,9.80
2018,03,28,15,17,9.80
2018,03,28,15,18,9.80
2018,03,28,15,19,9.90
2018,03,28,15,20,9.90
2018,03,28,15,21,9.90
2018,03,28,15,22,9.90
2018,03,28,15,23,9.90
2018,03,28,15,24,9.90
2018,03,28,15,25,9.90
2018,03,28,15,26,9.90
2018,03,28,15,27,9.90
2018,03,28,15,28,9.90
2018,03,28,15,29,9.90
2018,03,28,15,30,9.90
2018,03,28,15,31,9.90
2018,03,28,15,32,9.90
2018,03,28,15,33,9.90
2018,03,28,15,34,9.90
2018,03,28,15,35,9.90
2018,03,28,15,36,9.90
2018,03,28,15,37,9.90
2018,03,28,15,38,10.00
2018,03,28,15,39,10.00
2018,03,28,15,40,10.00
2018,03,28,15,41,10.00
2018,03,28,15,42,9.90
2018,03,28,15,43,9.90
2018,03,28,15,44,9.90
2018,03,28,15,45,9.90
2018,03,28,15,46,9.90
2018,03,28,15,47,9.90
2018,03,28,15,48,9.90
2018,03,28,15,49,10.00
2018,03,28,15,50,9.90
2018,03,28,15,51,9.90
2018,03,28,15,52,9.90
2018,03,28,15,53,9.90
2018,03,28,15,54,9.90
2018,03,28,15,55,10.00
2018,03,28,15,56,10.00
2018,03,28,15,57,10.10
2018,03,28,15,58,10.10
2018,03,28,15,59,10.10
2018,03,28,16,00,10.10
2018,03,28,16,01,10.10
2018,03,28,16,02,10.10
2018,03,28,16,03,10.10
2018,03,28,16,04,10.10
2018,03,28,16,05,10.10
2018,03,28,16,06,10.10
2018,03,28,16,07,10.10
2018,03,28,16,08,10.10
2018,03,28,16,09,10.10
2018,03,28,16,10,10.20
2018,03,28,16,11,10.20
2018,03,28,16,12,10.30
2018,03,28,16,13,10.30
2018,03,28,16,14,10.30
2018,03,28,16,15,10.30
2018,03,28,16,16,10.30
2018,03,28,16,17,10.40
2018,03,28,16,18,10.40
2018,03,28,16,19,10.40
2018,03,28,16,20,10.40
2018,03,28,16,21,10.40
2018,03,28,16,22,10.40
2018,03,28,16,23,10.40
2018,03,28,16,24,10.40
2018,03,28,16,25,10.40
2018,03,28,16,26,10.50
2018,03,28,16,27,10.50
2018,03,28,16,28,10.40
2018,03,28,16,29,10.40
2018,03,28,16,30,10.30
2018,03,28,16,31,10.30
2018,03,28,16,32,10.20
2018,03,28,16,33,10.20
2018,03,28,16,34,10.10
2018,03,28,16,35,10.10
2018,03,28,16,36,10.00
2018,03,28,16,37,10.00
2018,03,28,16,38,9.90
2018,03,28,16,39,9.90
2018,03,28,16,40,9.90
2018,03,28,16,41,9.90
2018,03,28,16,42,9.80
2018,03,28,16,43,9.80
2018,03,28,16,44,9.80
2018,03,28,16,45,9.80
2018,03,28,16,46,9.70
2018,03,28,16,47,9.70
2018,03,28,16,48,9.70
2018,03,28,16,49,9.70
2018,03,28,16,50,9.60
2018,03,28,16,51,9.60
2018,03,28,16,52,9.60
2018,03,28,16,53,9.60
2018,03,28,16,54,9.70
2018,03,28,16,55,9.70
2018,03,28,16,56,9.70
2018,03,28,16,57,9.70
2018,03,28,16,58,9.80
2018,03,28,16,59,9.80
2018,03,28,17,00,9.80
2018,03,28,17,01,9.80
2018,03,28,17,02,9.80
2018,03,28,17,03,9.80
2018,03,28,17,04,9.80
2018,03,28,17,05,9.90
2018,03,28,17,06,9.90
2018,03,28,17,07,9.90
2018,03,28,17,08,9.90
2018,03,28,17,09,9.90
2018,03,28,17,10,9.90
2018,03,28,17,11,10.00
2018,03,28,17,12,10.00
2018,03,28,17,13,10.00
2018,03,28,17,14,10.00
2018,03,28,17,15,10.00
2018,03,28,17,16,10.00
2018,03,28,17,17,10.00
2018,03,28,17,18,10.00
2018,03,28,17,19,10.00
2018,03,28,17,20,10.00
2018,03,28,17,21,9.90
2018,03,28,17,22,9.90
2018,03,28,17,23,9.90
2018,03,28,17,24,9.90
2018,03,28,17,25,9.90
2018,03,28,17,26,9.90
2018,03,28,17,27,9.90
2018,03,28,17,28,9.90
2018,03,28,17,29,9.90
2018,03,28,17,30,9.90
2018,03,28,17,31,9.90
2018,03,28,17,32,9.90
2018,03,28,17,33,9.90
2018,03,28,17,34,10.00
2018,03,28,17,35,10.00
2018,03,28,17,36,10.00
2018,03,28,17,37,10.00
2018,03,28,17,38,10.00
2018,03,28,17,39,10.00
2018,03,28,17,40,9.90
2018,03,28,17,41,9.90
2018,03,28,17,42,9.80
2018,03,28,17,43,9.70
2018,03,28,17,44,9.70
2018,03,28,17,45,9.70
2018,03,28,17,46,9.70
2018,03,28,17,47,9.60
2018,03,28,17,48,9.60
2018,03,28,17,49,9.60
2018,03,28,17,50,9.60
2018,03,28,17,51,9.60
2018,03,28,17,52,9.60
2018,03,28,17,53,9.60
2018,03,28,17,54,9.60
2018,03,28,17,55,9.60
2018,03,28,17,56,9.60
2018,03,28,17,57,9.60
2018,03,28,17,58,9.60
2018,03,28,17,59,9.60
2018,03,28,18,00,9.60
2018,03,28,18,01,9.60